sat.trackr.live / text

‹ back to catalog

STARLINK-3099

NORAD 49446 · 2021-104AQ

PAYLOAD ACTIVE UNKNOWN

§ Identity

Operator
Country
US
Launch date
2021-11-13
Launch site
AFETR
Launch vehicle
Mass (kg)
RCS (m²)

Purposes: comms

External: N2YO · Heavens-Above · Gunter

§ Orbital elements

Epoch: 2026-09-20T00:22:18.303168Z

Period
94.01 min
Inclination
53.1615°
Eccentricity
0.0001314
Mean motion
15.31701858 rev/d
Perigee alt
469.8 km
Apogee alt
471.6 km
Semi-major
6,848.9 km
B*
4.9549e-6
RAAN
48.2945°
Arg perigee
86.8671°
Mean anomaly
273.2481°
Rev number
26,836

§ Raw data

STARLINK-30991 49446U 21104AQ  26263.01548962 -.00000211  00000+0  49549-5 0  99992 49446  53.1615  48.2945 0001314  86.8671 273.2481 15.31701858268368

JSON: /api/v1/satellites/49446 · /tle

For live sub-satellite position, see the globe view (requires WebGL).

§ Visibility from observer

Set your observer location to see the next 7 days of passes ≥ 10°. The values pass through the URL so the page stays shareable.

No JS? Fill the form by hand. The geolocation button needs JavaScript.